Weather in Mandalgovi

Mongolia     45°45′43″N   106°16′18″E
temp.,
°C
wind,
m/s
gust,
m/s
humid.,
%
clouds,
%
prec.,
mm/h
press.,
hPa
HPBL,
m
14 may, fri
fri1423:00+15wsw61131100 0.0 1001429
02:00+6n111468100 0.0 1007466
05:00+5nne91277100 0.0 1009718
08:00+4nne91076100 0.0 1013812
11:00+5nne7846100 0.0 1015826
14:00+10n77185 0.0 10131589
17:00+11n67161 0.0 10131791
20:00+8n57175 0.0 1015618
15 may, sat
sat1523:00+6n372366 0.0 1020180
02:00+4nne352638 0.0 102088
05:00+3ne22325 0.0 102122
08:00+5ene112634 0.0 1022216
11:00+10wsw23225 0.0 10201153
14:00+14w56189 0.0 10172077
17:00+16wnw56152 0.0 10152866
20:00+13nw463218 0.0 1016217
16 may, sun
sun1623:00+11wnw22345 0.0 101720
02:00+10wnw22355 0.0 101713
05:00+9wnw33380 0.0 101728
08:00+12nw35290 0.0 1018218
11:00+16nw46214 0.0 10161753
14:00+19wnw68165 0.0 10133431
17:00+20w781322 0.0 10103483
20:00+18w47156 0.0 1010119
17 may, mon
mon1723:00+14nw122233 0.0 101111
02:00+13w34294 0.0 101046
05:00+12w22290 0.0 100910
08:00+15nw36230 0.0 1009215
11:00+20wnw57160 0.0 10072144
14:00+22w781179 0.0 10044199
17:00+23wnw810813 0.0 10024424
20:00+20w2313100 0.0 100120
18 may, tue
tue1823:00+15w4630100 0.0 1005101
02:00+13nnw48360 0.0 1005161
05:00+11nnw475130 0.0 1005142
08:00+15nw47435 0.0 1005504
11:00+18nw692911 0.0 10051849
14:00+21wnw81022100 0.0 10023335
17:00+19nw10929100 0.1 10022108
20:00+17n573780 0.1 1003382